Vorticity
4 1 1 9 15 8 7 4 4 3 4 5 5 3 4 6 9 10 7 6 7 8 6 7 7 8 7 3 -1 -2 1 0 0 5 6 4 3 3 4 6 10 9 9
16 15 15 13 9 7 4 3 4 4 3 5 7 7 8 8 9 6 6 6 7 6 5 5 5 4 4 5 1 3 -2 -1 -1 3 2 4 7 7 5 4 3 3 5
8 10 9 6 7 5 0 5 2 1 1 5 5 5 7 7 5 4 5 7 6 6 3 5 3 3 4 3 4 2 4 0 0 1 1 5 5 1 7 10 6 4 4
8 7 8 5 1 2 2 3 3 -1 -8 -5 1 6 7 7 6 7 7 8 7 6 3 3 4 3 3 3 3 2 2 2 3 3 3 0 1 3 4 6 5 8 7
7 5 4 3 3 3 3 8 14 14 17 13 10 8 6 7 6 6 7 7 7 6 6 5 6 5 4 3 1 2 3 3 3 5 5 3 5 3 1 4 4 0 6
6 5 3 3 1 1 -0 10 2 12 10 8 10 10 8 9 7 6 7 7 7 4 3 3 3 6 5 5 5 5 5 6 6 7 8 11 6 8 9 10 12 10 7
6 3 4 8 8 8 6 1 4 -1 -12 10 -5 9 9 8 6 5 6 7 8 7 6 8 8 7 8 8 9 9 6 7 9 11 13 12 12 12 18 16 21 17 29
2 5 6 3 1 2 -4 -1 -3 -1 -1 14 0 11 11 -3 9 7 5 5 5 5 7 9 9 9 10 9 9 10 9 10 12 15 14 13 14 15 16 11 10 10 17
2 3 3 2 1 -1 -0 1 -1 4 1 -13 14 16 2 3 7 11 5 6 7 7 9 10 12 12 12 13 15 13 17 19 19 17 12 12 11 10 12 12 15 18 17
3 2 1 -0 0 -1 -1 -0 -1 -5 9 5 10 13 11 2 8 10 8 8 11 13 14 14 16 15 14 14 15 16 12 7 9 10 11 10 11 11 10 6 15 13 15
1 2 0 -1 0 3 3 -1 8 27 -12 26 11 4 19 7 12 9 10 12 12 13 13 12 13 12 11 9 7 8 10 10 11 11 9 9 8 9 14 14 13 21 16
1 -0 -0 0 3 -0 -14 12 2 2 6 13 20 15 11 15 10 13 13 15 14 13 13 14 15 11 11 8 9 10 8 9 8 9 11 10 8 8 8 9 13 14 11
4 5 8 6 8 2 11 7 20 14 11 17 12 17 15 8 15 15 13 9 7 10 10 11 9 10 9 10 9 9 9 9 11 13 14 14 13 12 11 10 8 10 14
8 14 -6 31 9 2 8 6 5 15 7 8 14 14 11 16 9 6 14 14 11 9 9 12 13 10 8 8 9 9 11 12 12 11 11 11 11 11 11 12 11 11 11
4 11 7 5 14 12 20 8 11 10 14 13 10 13 11 8 24 13 11 10 11 10 8 9 8 7 8 9 12 13 12 10 10 10 10 11 12 12 13 13 13 12 12
6 15 16 4 6 -1 8 9 11 11 15 10 11 13 24 8 10 9 10 11 12 10 10 9 8 9 9 12 12 10 9 9 14 16 16 16 15 16 16 17 19 19 18
15 -4 5 6 4 1 1 -0 18 11 9 17 19 11 9 7 10 11 9 9 13 12 9 9 9 9 12 11 9 10 14 15 14 13 12 13 14 16 15 14 13 13 12
7 -3 5 6 6 -3 -1 15 16 9 17 18 10 7 6 8 8 7 7 -1 11 11 7 8 9 13 11 8 12 14 15 13 10 12 12 13 14 12 11 9 9 9 9
4 4 -3 8 -8 11 12 16 -1 16 21 13 8 4 8 7 9 10 10 2 12 10 7 8 13 11 8 14 14 14 14 12 13 15 14 13 11 11 14 16 17 18 18
6 6 21 -11 6 0 29 -7 11 29 12 8 4 6 9 8 9 10 10 11 12 8 8 13 12 8 13 13 12 11 12 11 16 14 14 16 14 14 14 13 13 13 15
16 -19 5 10 7 30 0 3 28 16 7 5 1 11 9 9 8 11 6 12 10 7 13 11 8 11 12 12 12 12 11 15 16 16 13 19 12 15 14 13 15 18 18
-7 10 1 -15 34 9 3 22 24 5 4 -0 12 9 9 8 8 8 12 12 8 11 12 8 10 10 12 12 12 12 12 12 18 15 13 18 10 14 9 13 15 18 24
9 -11 16 18 3 12 3 36 8 4 1 11 11 9 9 8 8 8 11 11 9 13 10 8 10 10 11 10 9 12 12 13 16 18 9 17 8 12 9 13 13 18 16
-22 16 41 3 12 8 32 15 6 1 10 13 11 8 7 8 8 8 13 10 10 14 9 9 10 10 9 8 11 12 14 13 14 20 7 10 9 5 14 11 18 14 18
25 28 9 11 10 30 14 10 4 8 11 11 9 8 9 8 7 8 9 8 10 16 8 9 10 10 8 8 9 12 15 15 16 22 15 3 8 8 5 14 19 18 14
12 5 11 11 23 12 9 9 11 9 10 11 9 8 8 8 6 8 9 7 10 13 10 9 10 9 7 5 8 12 13 14 13 17 14 10 21 -1 13 12 10 14 15
Height
3174 3174 3173 3173 3172 3172 3171 3169 3166 3164 3161 3159 3157 3156 3154 3154 3151 3150 3148 3143 3143 3140 3139 3136 3135 3134 3132 3130 3129 3127 3126 3125 3124 3123 3121 3122 3122 3122 3122 3122 3123 3124 3125
3172 3172 3171 3171 3170 3170 3168 3166 3164 3162 3161 3157 3153 3151 3150 3149 3147 3146 3144 3140 3139 3137 3135 3131 3128 3126 3126 3126 3124 3122 3120 3118 3117 3117 3115 3114 3114 3115 3114 3114 3113 3114 3115
3169 3169 3169 3168 3168 3168 3166 3165 3162 3159 3158 3154 3150 3147 3146 3144 3142 3139 3138 3136 3134 3132 3129 3126 3123 3120 3117 3115 3115 3114 3111 3110 3108 3106 3104 3103 3104 3103 3104 3104 3104 3104 3104
3167 3167 3167 3165 3166 3166 3163 3162 3159 3157 3155 3151 3148 3145 3142 3140 3137 3134 3132 3130 3128 3126 3123 3120 3116 3114 3111 3108 3106 3104 3103 3101 3099 3096 3093 3091 3089 3089 3090 3091 3092 3093 3094
3164 3164 3164 3163 3164 3163 3161 3160 3157 3154 3150 3147 3144 3142 3139 3135 3132 3129 3127 3125 3123 3120 3117 3114 3110 3107 3104 3101 3098 3096 3093 3091 3089 3086 3082 3080 3078 3075 3075 3076 3077 3078 3079
3162 3162 3162 3161 3161 3160 3157 3155 3152 3148 3146 3144 3141 3138 3135 3131 3128 3125 3122 3119 3117 3114 3111 3108 3104 3100 3096 3092 3089 3087 3084 3081 3078 3075 3071 3068 3064 3062 3059 3059 3058 3059 3062
3160 3159 3159 3158 3157 3155 3153 3151 3148 3146 3144 3141 3137 3133 3130 3127 3123 3120 3117 3113 3110 3106 3102 3098 3095 3091 3087 3083 3080 3076 3073 3070 3067 3064 3062 3058 3054 3051 3049 3047 3044 3041 3043
3156 3156 3155 3153 3152 3150 3149 3147 3144 3142 3139 3136 3133 3129 3124 3122 3118 3114 3110 3106 3102 3097 3093 3089 3084 3079 3075 3071 3067 3063 3060 3056 3053 3051 3048 3046 3043 3041 3039 3037 3035 3032 3030
3152 3151 3151 3149 3148 3146 3144 3142 3140 3137 3134 3130 3126 3123 3117 3114 3110 3106 3102 3097 3093 3089 3084 3079 3074 3069 3064 3060 3056 3052 3050 3046 3043 3041 3038 3036 3033 3031 3029 3027 3025 3024 3022
3148 3147 3146 3145 3143 3141 3138 3135 3133 3129 3126 3122 3117 3114 3109 3105 3099 3094 3092 3087 3082 3078 3073 3068 3063 3058 3053 3050 3047 3043 3040 3037 3033 3030 3027 3025 3023 3021 3019 3017 3015 3014 3013
3142 3142 3140 3139 3137 3134 3131 3128 3124 3120 3117 3112 3107 3102 3098 3095 3090 3085 3079 3076 3071 3066 3062 3057 3053 3048 3045 3042 3038 3035 3032 3029 3024 3021 3018 3015 3011 3009 3009 3007 3005 3005 3003
3137 3136 3134 3132 3129 3126 3123 3119 3116 3112 3108 3102 3097 3092 3088 3083 3078 3074 3069 3064 3060 3057 3052 3047 3044 3040 3037 3034 3030 3025 3021 3018 3015 3011 3007 3003 3000 2999 2998 2996 2996 2995 2994
3130 3129 3127 3122 3117 3118 3114 3110 3106 3101 3096 3091 3087 3083 3078 3073 3067 3063 3059 3055 3051 3047 3043 3039 3036 3033 3030 3026 3022 3017 3013 3009 3004 3000 2997 2993 2990 2988 2987 2986 2985 2985 2984
3123 3122 3120 3115 3112 3110 3107 3101 3096 3091 3086 3081 3076 3072 3068 3064 3060 3056 3052 3047 3043 3040 3035 3031 3028 3024 3020 3017 3013 3008 3003 2998 2994 2989 2985 2982 2979 2977 2975 2975 2974 2974 2973
3115 3113 3110 3108 3105 3101 3096 3092 3087 3081 3075 3070 3066 3062 3058 3055 3052 3048 3044 3040 3036 3031 3027 3023 3018 3014 3010 3007 3003 2998 2993 2988 2984 2979 2975 2971 2968 2964 2963 2963 2963 2962 2961
3107 3103 3101 3099 3095 3091 3087 3083 3077 3071 3066 3062 3059 3055 3052 3049 3045 3041 3037 3033 3029 3024 3019 3016 3012 3007 3002 2997 2993 2988 2983 2977 2972 2968 2963 2959 2956 2953 2951 2950 2950 2950 2949
3099 3097 3094 3090 3086 3083 3078 3073 3068 3063 3060 3056 3052 3049 3046 3043 3039 3034 3030 3026 3022 3017 3012 3010 3005 2999 2994 2988 2984 2978 2973 2967 2962 2958 2953 2949 2946 2944 2942 2940 2939 2939 2939
3093 3089 3084 3082 3077 3074 3070 3065 3060 3057 3053 3049 3046 3043 3039 3035 3030 3026 3022 3019 3014 3009 3005 3001 2997 2991 2987 2981 2975 2969 2965 2959 2953 2949 2944 2940 2938 2936 2933 2931 2929 2929 2929
3084 3080 3077 3072 3070 3065 3060 3056 3053 3051 3046 3042 3039 3035 3031 3027 3023 3019 3015 3011 3006 3002 2997 2993 2988 2984 2979 2973 2967 2963 2958 2952 2947 2941 2937 2934 2930 2927 2924 2921 2919 2918 2918
3075 3071 3066 3065 3060 3056 3051 3049 3046 3043 3039 3036 3032 3028 3024 3020 3017 3012 3008 3004 2999 2995 2990 2985 2982 2976 2971 2965 2960 2954 2952 2946 2941 2935 2930 2927 2923 2919 2916 2913 2911 2910 2909
3065 3061 3059 3054 3047 3045 3045 3042 3038 3034 3031 3027 3024 3021 3017 3013 3009 3005 3001 2997 2993 2988 2983 2979 2975 2969 2964 2959 2953 2948 2942 2939 2935 2927 2925 2921 2917 2915 2911 2907 2903 2902 2901
3055 3052 3047 3040 3041 3040 3038 3034 3028 3025 3023 3020 3017 3013 3010 3006 3002 2998 2994 2990 2986 2981 2977 2972 2968 2962 2958 2952 2947 2942 2937 2932 2928 2923 2920 2918 2911 2909 2905 2901 2898 2895 2894
3044 3039 3035 3033 3035 3033 3028 3023 3020 3018 3015 3013 3009 3006 3002 2999 2995 2991 2987 2983 2979 2974 2970 2966 2962 2957 2952 2946 2942 2938 2933 2928 2923 2918 2912 2913 2907 2905 2900 2896 2893 2891 2889
3034 3035 3031 3031 3028 3025 3019 3016 3014 3010 3007 3004 3001 2998 2994 2990 2987 2983 2980 2976 2972 2968 2963 2959 2955 2951 2947 2942 2937 2932 2927 2923 2919 2914 2908 2906 2903 2901 2898 2892 2889 2887 2885
3027 3029 3026 3022 3018 3016 3011 3008 3006 3002 2998 2996 2993 2989 2987 2983 2979 2976 2972 2969 2965 2961 2957 2953 2950 2946 2942 2938 2932 2927 2922 2918 2914 2910 2905 2900 2900 2897 2895 2891 2886 2884 2882
3024 3021 3017 3013 3010 3007 3004 3001 2997 2993 2990 2987 2984 2980 2978 2975 2971 2968 2964 2961 2958 2955 2951 2948 2945 2941 2938 2934 2929 2923 2918 2913 2909 2906 2901 2898 2896 2892 2890 2888 2884 2879 2877